Year,Month,Day,Hour,Minute,Value (Times are PST for temperature in C)
2014,08,25,00,00,13.70
2014,08,25,00,01,13.80
2014,08,25,00,02,13.80
2014,08,25,00,03,13.90
2014,08,25,00,04,13.90
2014,08,25,00,05,13.90
2014,08,25,01,06,12.90
2014,08,25,01,07,12.80
2014,08,25,01,08,12.80
2014,08,25,01,09,12.80
2014,08,25,01,10,12.80
2014,08,25,01,11,12.80
2014,08,25,01,12,12.70
2014,08,25,01,13,12.70
2014,08,25,01,14,12.70
2014,08,25,01,15,12.70
2014,08,25,01,16,12.70
2014,08,25,01,17,12.70
2014,08,25,01,18,12.70
2014,08,25,01,19,12.70
2014,08,25,01,20,12.70
2014,08,25,01,21,12.70
2014,08,25,01,22,12.70
2014,08,25,01,23,12.70
2014,08,25,01,24,12.70
2014,08,25,01,25,12.70
2014,08,25,01,26,12.70
2014,08,25,01,27,12.70
2014,08,25,01,28,12.70
2014,08,25,01,29,12.70
2014,08,25,01,30,12.70
2014,08,25,01,31,12.70
2014,08,25,01,32,12.70
2014,08,25,01,33,12.70
2014,08,25,01,34,12.70
2014,08,25,01,35,12.70
2014,08,25,01,36,12.70
2014,08,25,01,37,12.70
2014,08,25,01,38,12.80
2014,08,25,01,39,12.80
2014,08,25,01,40,12.80
2014,08,25,01,41,12.90
2014,08,25,01,42,12.90
2014,08,25,01,43,12.90
2014,08,25,01,44,13.00
2014,08,25,01,45,13.00
2014,08,25,01,46,13.10
2014,08,25,01,47,13.10
2014,08,25,01,48,13.10
2014,08,25,01,49,13.10
2014,08,25,01,50,13.10
2014,08,25,01,51,13.10
2014,08,25,01,52,13.10
2014,08,25,01,53,13.10
2014,08,25,01,54,13.20
2014,08,25,01,55,13.20
2014,08,25,01,56,13.20
2014,08,25,01,57,13.20
2014,08,25,01,58,13.10
2014,08,25,01,59,13.10
2014,08,25,02,00,13.10
2014,08,25,02,01,13.10
2014,08,25,02,02,13.20
2014,08,25,02,03,13.40
2014,08,25,02,04,13.50
2014,08,25,02,05,13.60
2014,08,25,02,06,13.70
2014,08,25,02,07,13.80
2014,08,25,02,08,13.90
2014,08,25,02,09,14.00
2014,08,25,02,10,14.00
2014,08,25,02,11,14.10
2014,08,25,02,12,14.20
2014,08,25,02,13,14.20
2014,08,25,02,14,14.30
2014,08,25,02,15,14.30
2014,08,25,02,16,14.30
2014,08,25,02,17,14.20
2014,08,25,02,18,14.20
2014,08,25,02,19,14.10
2014,08,25,02,20,14.10
2014,08,25,02,21,14.10
2014,08,25,02,22,14.10
2014,08,25,02,23,14.10
2014,08,25,02,24,14.20
2014,08,25,02,25,14.20
2014,08,25,02,26,14.20
2014,08,25,02,27,14.20
2014,08,25,02,28,14.10
2014,08,25,02,29,14.00
2014,08,25,02,30,13.90
2014,08,25,02,31,13.80
2014,08,25,02,32,13.80
2014,08,25,02,33,13.70
2014,08,25,02,34,13.70
2014,08,25,02,35,13.60
2014,08,25,02,36,13.50
2014,08,25,02,37,13.50
2014,08,25,02,38,13.40
2014,08,25,02,39,13.40
2014,08,25,02,40,13.40
2014,08,25,02,41,13.50
2014,08,25,02,42,13.50
2014,08,25,02,43,13.60
2014,08,25,02,44,13.60
2014,08,25,02,45,13.60
2014,08,25,02,46,13.70
2014,08,25,02,47,13.70
2014,08,25,02,48,13.70
2014,08,25,02,49,13.70
2014,08,25,02,50,13.70
2014,08,25,02,51,13.80
2014,08,25,02,52,13.80
2014,08,25,02,53,13.80
2014,08,25,02,54,13.80
2014,08,25,02,55,13.80
2014,08,25,02,56,13.80
2014,08,25,02,57,13.70
2014,08,25,02,58,13.70
2014,08,25,02,59,13.70
2014,08,25,03,00,13.70
2014,08,25,03,01,13.60
2014,08,25,03,02,13.60
2014,08,25,03,03,13.60
2014,08,25,03,04,13.60
2014,08,25,03,05,13.60
2014,08,25,03,06,13.60
2014,08,25,03,07,13.50
2014,08,25,03,08,13.50
2014,08,25,03,09,13.50
2014,08,25,03,10,13.50
2014,08,25,03,11,13.50
2014,08,25,03,12,13.50
2014,08,25,03,13,13.50
2014,08,25,03,14,13.50
2014,08,25,03,15,13.50
2014,08,25,03,16,13.50
2014,08,25,03,17,13.50
2014,08,25,03,18,13.50
2014,08,25,03,19,13.50
2014,08,25,03,20,13.50
2014,08,25,03,21,13.50
2014,08,25,03,22,13.50
2014,08,25,03,23,13.50
2014,08,25,03,24,13.60
2014,08,25,03,25,13.60
2014,08,25,03,26,13.60
2014,08,25,03,27,13.60
2014,08,25,03,28,13.60
2014,08,25,03,29,13.50
2014,08,25,03,30,13.50
2014,08,25,03,31,13.50
2014,08,25,03,32,13.40
2014,08,25,03,33,13.40
2014,08,25,03,34,13.40
2014,08,25,03,35,13.40
2014,08,25,03,36,13.40
2014,08,25,03,37,13.40
2014,08,25,03,38,13.40
2014,08,25,03,39,13.40
2014,08,25,03,40,13.40
2014,08,25,03,41,13.40
2014,08,25,03,42,13.40
2014,08,25,03,43,13.40
2014,08,25,03,44,13.40
2014,08,25,03,45,13.40
2014,08,25,03,46,13.40
2014,08,25,03,47,13.40
2014,08,25,03,48,13.40
2014,08,25,03,49,13.40
2014,08,25,03,50,13.40
2014,08,25,03,51,13.40
2014,08,25,03,52,13.40
2014,08,25,03,53,13.40
2014,08,25,03,54,13.40
2014,08,25,03,55,13.30
2014,08,25,03,56,13.30
2014,08,25,03,57,13.20
2014,08,25,03,58,13.20
2014,08,25,03,59,13.10
2014,08,25,04,00,13.00
2014,08,25,04,01,13.00
2014,08,25,04,02,13.00
2014,08,25,04,03,12.90
2014,08,25,04,04,12.90
2014,08,25,04,05,12.90
2014,08,25,04,06,12.90
2014,08,25,04,07,12.80
2014,08,25,04,08,12.80
2014,08,25,04,09,12.80
2014,08,25,04,10,12.80
2014,08,25,04,11,12.80
2014,08,25,04,12,12.90
2014,08,25,04,13,12.90
2014,08,25,04,14,13.00
2014,08,25,04,15,13.00
2014,08,25,04,16,13.00
2014,08,25,04,17,13.10
2014,08,25,04,18,13.10
2014,08,25,04,19,13.10
2014,08,25,04,20,13.20
2014,08,25,04,21,13.20
2014,08,25,04,22,13.30
2014,08,25,04,23,13.30
2014,08,25,04,24,13.40
2014,08,25,04,25,13.40
2014,08,25,04,26,13.50
2014,08,25,04,27,13.50
2014,08,25,04,28,13.60
2014,08,25,04,29,13.60
2014,08,25,04,30,13.70
2014,08,25,04,31,13.80
2014,08,25,04,32,13.80
2014,08,25,04,33,13.90
2014,08,25,04,34,13.90
2014,08,25,04,35,13.80
2014,08,25,04,36,13.80
2014,08,25,04,37,13.70
2014,08,25,04,38,13.70
2014,08,25,04,39,13.60
2014,08,25,04,40,13.70
2014,08,25,04,41,13.70
2014,08,25,04,42,13.70
2014,08,25,04,43,13.80
2014,08,25,04,44,13.80
2014,08,25,04,45,13.80
2014,08,25,04,46,13.80
2014,08,25,04,47,13.90
2014,08,25,04,48,13.90
2014,08,25,04,49,14.00
2014,08,25,04,50,14.10
2014,08,25,04,51,14.10
2014,08,25,04,52,14.20
2014,08,25,04,53,14.20
2014,08,25,04,54,14.30
2014,08,25,04,55,14.30
2014,08,25,04,56,14.30
2014,08,25,04,57,14.30
2014,08,25,04,58,14.40
2014,08,25,04,59,14.40
2014,08,25,05,00,14.40
2014,08,25,05,01,14.50
2014,08,25,05,02,14.50
2014,08,25,05,03,14.50
2014,08,25,05,04,14.60
2014,08,25,05,05,14.60
2014,08,25,05,06,14.60
2014,08,25,05,07,14.60
2014,08,25,05,08,14.60
2014,08,25,05,09,14.60
2014,08,25,05,10,14.60
2014,08,25,05,11,14.60
2014,08,25,05,12,14.70
2014,08,25,05,13,14.70
2014,08,25,05,14,14.70
2014,08,25,05,15,14.70
2014,08,25,05,16,14.70
2014,08,25,05,17,14.70
2014,08,25,05,18,14.70
2014,08,25,05,19,14.80
2014,08,25,05,20,14.80
2014,08,25,05,21,14.80
2014,08,25,05,22,14.80
2014,08,25,05,23,14.80
2014,08,25,05,24,14.60
2014,08,25,05,25,14.40
2014,08,25,05,26,14.20
2014,08,25,05,27,14.10
2014,08,25,05,28,14.00
2014,08,25,05,29,13.80
2014,08,25,05,30,13.70
2014,08,25,05,31,13.50
2014,08,25,05,32,13.40
2014,08,25,05,33,13.30
2014,08,25,05,34,13.20
2014,08,25,05,35,13.10
2014,08,25,05,36,13.10
2014,08,25,05,37,12.90
2014,08,25,05,38,12.80
2014,08,25,05,39,12.70
2014,08,25,05,40,12.60
2014,08,25,05,41,12.50
2014,08,25,05,42,12.30
2014,08,25,05,43,12.30
2014,08,25,05,44,12.20
2014,08,25,05,45,12.20
2014,08,25,05,46,12.10
2014,08,25,05,47,12.00
2014,08,25,05,48,12.00
2014,08,25,05,49,11.90
2014,08,25,05,50,11.80
2014,08,25,05,51,11.80
2014,08,25,05,52,11.70
2014,08,25,05,53,11.70
2014,08,25,05,54,11.60
2014,08,25,05,55,11.60
2014,08,25,05,56,11.60
2014,08,25,05,57,11.50
2014,08,25,05,58,11.50
2014,08,25,05,59,11.50
2014,08,25,06,00,11.40
2014,08,25,06,01,11.40
2014,08,25,06,02,11.40
2014,08,25,06,03,11.50
2014,08,25,06,04,11.50
2014,08,25,06,05,11.50
2014,08,25,06,06,11.60
2014,08,25,06,07,11.60
2014,08,25,06,08,11.60
2014,08,25,06,09,11.70
2014,08,25,06,10,11.60
2014,08,25,06,11,11.60
2014,08,25,06,12,11.60
2014,08,25,06,13,11.60
2014,08,25,06,14,11.70
2014,08,25,06,15,11.80
2014,08,25,06,16,11.80
2014,08,25,06,17,11.90
2014,08,25,06,18,11.90
2014,08,25,06,19,11.90
2014,08,25,06,20,11.90
2014,08,25,06,21,11.90
2014,08,25,06,22,11.90
2014,08,25,06,23,12.00
2014,08,25,06,24,12.10
2014,08,25,06,25,12.20
2014,08,25,06,26,12.30
2014,08,25,06,27,12.30
2014,08,25,06,28,12.30
2014,08,25,06,29,12.30
2014,08,25,06,30,12.30
2014,08,25,06,31,12.30
2014,08,25,06,32,12.40
2014,08,25,06,33,12.40
2014,08,25,06,34,12.40
2014,08,25,06,35,12.40
2014,08,25,06,36,12.40
2014,08,25,06,37,12.50
2014,08,25,06,38,12.50
2014,08,25,06,39,12.50
2014,08,25,06,40,12.50
2014,08,25,06,41,12.60
2014,08,25,06,42,12.60
2014,08,25,06,43,12.70
2014,08,25,06,44,12.70
2014,08,25,06,45,12.80
2014,08,25,06,46,12.80
2014,08,25,06,47,12.90
2014,08,25,06,48,13.10
2014,08,25,06,49,13.10
2014,08,25,06,50,13.20
2014,08,25,06,51,13.30
2014,08,25,06,52,13.30
2014,08,25,06,53,13.40
2014,08,25,06,54,13.50
2014,08,25,06,55,13.50
2014,08,25,06,56,13.60
2014,08,25,06,57,13.70
2014,08,25,06,58,13.70
2014,08,25,06,59,13.80
2014,08,25,07,00,13.90
2014,08,25,07,01,14.00
2014,08,25,07,02,14.20
2014,08,25,07,03,14.30
2014,08,25,07,04,14.40
2014,08,25,07,05,14.60
2014,08,25,07,06,14.70
2014,08,25,07,07,14.70
2014,08,25,07,08,14.80
2014,08,25,07,09,14.90
2014,08,25,07,10,15.00
2014,08,25,07,11,15.10
2014,08,25,07,12,15.10
2014,08,25,07,13,15.20
2014,08,25,07,14,15.20
2014,08,25,07,15,15.30
2014,08,25,07,16,15.30
2014,08,25,07,17,15.40
2014,08,25,07,18,15.40
2014,08,25,07,19,15.50
2014,08,25,07,20,15.60
2014,08,25,07,21,15.60
2014,08,25,07,22,15.70
2014,08,25,07,23,15.70
2014,08,25,07,24,15.70
2014,08,25,07,25,15.70
2014,08,25,07,26,15.70
2014,08,25,07,27,15.70
2014,08,25,07,28,15.80
2014,08,25,07,29,15.80
2014,08,25,07,30,15.80
2014,08,25,07,31,15.80
2014,08,25,07,32,15.90
2014,08,25,07,33,15.90
2014,08,25,07,34,16.00
2014,08,25,07,35,16.00
2014,08,25,07,36,16.00
2014,08,25,07,37,16.00
2014,08,25,07,38,15.90
2014,08,25,07,39,16.00
2014,08,25,07,40,16.00
2014,08,25,07,41,15.80
2014,08,25,07,42,15.60
2014,08,25,07,43,15.40
2014,08,25,07,44,15.30
2014,08,25,07,45,15.00
2014,08,25,07,46,14.70
2014,08,25,07,47,14.40
2014,08,25,07,48,14.20
2014,08,25,07,49,14.10
2014,08,25,07,50,13.90
2014,08,25,07,51,13.80
2014,08,25,07,52,13.70
2014,08,25,07,53,13.60
2014,08,25,07,54,13.40
2014,08,25,07,55,13.20
2014,08,25,07,56,13.20
2014,08,25,07,57,13.20
2014,08,25,07,58,13.30
2014,08,25,07,59,13.30
2014,08,25,08,00,13.40
2014,08,25,08,01,13.40
2014,08,25,08,02,13.40
2014,08,25,08,03,13.40
2014,08,25,08,04,13.40
2014,08,25,08,05,13.40
2014,08,25,08,06,13.40
2014,08,25,08,07,13.40
2014,08,25,08,08,13.30
2014,08,25,08,09,13.20
2014,08,25,08,10,13.10
2014,08,25,08,11,13.00
2014,08,25,08,12,12.90
2014,08,25,08,13,12.90
2014,08,25,08,14,12.90
2014,08,25,08,15,12.90
2014,08,25,08,16,12.80
2014,08,25,08,17,12.80
2014,08,25,08,18,12.80
2014,08,25,08,19,12.70
2014,08,25,08,20,12.60
2014,08,25,08,21,12.50
2014,08,25,08,22,12.50
2014,08,25,08,23,12.50
2014,08,25,08,24,12.50
2014,08,25,08,25,12.50
2014,08,25,08,26,12.50
2014,08,25,08,27,12.50
2014,08,25,08,28,12.60
2014,08,25,08,29,12.60
2014,08,25,08,30,12.70
2014,08,25,08,31,12.80
2014,08,25,08,32,12.90
2014,08,25,08,33,12.90
2014,08,25,08,34,12.90
2014,08,25,08,35,12.90
2014,08,25,08,36,12.90
2014,08,25,08,37,13.00
2014,08,25,08,38,13.10
2014,08,25,08,39,13.20
2014,08,25,08,40,13.30
2014,08,25,08,41,13.40
2014,08,25,08,42,13.50
2014,08,25,08,43,13.70
2014,08,25,08,44,13.80
2014,08,25,08,45,14.00
2014,08,25,08,46,14.10
2014,08,25,08,47,14.20
2014,08,25,08,48,14.30
2014,08,25,08,49,14.50
2014,08,25,08,50,14.60
2014,08,25,08,51,14.70
2014,08,25,08,52,14.80
2014,08,25,08,53,14.90
2014,08,25,08,54,15.00
2014,08,25,08,55,15.10
2014,08,25,08,56,15.20
2014,08,25,08,57,15.30
2014,08,25,08,58,15.40
2014,08,25,08,59,15.50
2014,08,25,09,00,15.60
2014,08,25,09,01,15.80
2014,08,25,09,02,15.80
2014,08,25,09,03,15.80
2014,08,25,09,04,15.80
2014,08,25,09,05,15.60
2014,08,25,09,06,15.40
2014,08,25,09,07,15.20
2014,08,25,09,08,15.00
2014,08,25,09,09,14.70
2014,08,25,09,10,14.50
2014,08,25,09,11,14.30
2014,08,25,09,12,14.20
2014,08,25,09,13,14.20
2014,08,25,09,14,14.30
2014,08,25,09,15,14.30
2014,08,25,09,16,14.40
2014,08,25,09,17,14.40
2014,08,25,09,18,14.50
2014,08,25,09,19,14.50
2014,08,25,09,20,14.30
2014,08,25,09,21,14.20
2014,08,25,09,22,14.00
2014,08,25,09,23,14.00
2014,08,25,09,24,14.00
2014,08,25,09,25,14.10
2014,08,25,09,26,14.20
2014,08,25,09,27,14.20
2014,08,25,09,28,14.30
2014,08,25,09,29,14.30
2014,08,25,09,30,14.20
2014,08,25,09,31,14.10
2014,08,25,09,32,14.00
2014,08,25,09,33,14.00
2014,08,25,09,34,14.00
2014,08,25,09,35,14.00
2014,08,25,09,36,14.00
2014,08,25,09,37,14.00
2014,08,25,09,38,14.10
2014,08,25,09,39,14.10
2014,08,25,09,40,14.10
2014,08,25,09,41,14.10
2014,08,25,09,42,14.10
2014,08,25,09,43,14.20
2014,08,25,09,44,14.30
2014,08,25,09,45,14.40
2014,08,25,09,46,14.50
2014,08,25,09,47,14.60
2014,08,25,09,48,14.60
2014,08,25,09,49,14.60
2014,08,25,09,50,14.60
2014,08,25,09,51,14.60
2014,08,25,09,52,15.00
2014,08,25,09,53,15.00
2014,08,25,09,54,15.00
2014,08,25,09,55,14.90
2014,08,25,09,56,14.90
2014,08,25,09,57,14.90
2014,08,25,09,58,15.00
2014,08,25,09,59,15.00
2014,08,25,10,00,15.10
2014,08,25,10,01,15.20
2014,08,25,10,02,15.30
2014,08,25,10,03,15.40
2014,08,25,10,04,15.40
2014,08,25,10,05,15.50
2014,08,25,10,06,15.50
2014,08,25,10,07,15.50
2014,08,25,10,08,15.60
2014,08,25,10,09,15.60
2014,08,25,10,10,15.60
2014,08,25,10,11,15.70
2014,08,25,10,12,15.70
2014,08,25,10,13,15.80
2014,08,25,10,14,15.90
2014,08,25,10,15,16.00
2014,08,25,10,16,16.00
2014,08,25,10,17,16.10
2014,08,25,10,18,16.20
2014,08,25,10,19,16.30
2014,08,25,10,20,16.40
2014,08,25,10,21,16.60
2014,08,25,10,22,16.70
2014,08,25,10,23,16.80
2014,08,25,10,24,16.90
2014,08,25,10,25,17.10
2014,08,25,10,26,17.20
2014,08,25,10,27,17.30
2014,08,25,10,28,17.40
2014,08,25,10,29,17.40
2014,08,25,10,30,17.50
2014,08,25,10,31,17.50
2014,08,25,10,32,17.50
2014,08,25,10,33,17.60
2014,08,25,10,34,17.60
2014,08,25,10,35,17.60
2014,08,25,10,36,17.50
2014,08,25,10,37,17.50
2014,08,25,10,38,17.40
2014,08,25,10,39,17.40
2014,08,25,10,40,17.40
2014,08,25,10,41,17.40
2014,08,25,10,42,17.40
2014,08,25,10,43,17.40
2014,08,25,10,44,17.40
2014,08,25,10,45,17.40
2014,08,25,10,46,17.30
2014,08,25,10,47,17.30
2014,08,25,10,48,17.30
2014,08,25,10,49,17.40
2014,08,25,10,50,17.40
2014,08,25,10,51,17.50
2014,08,25,10,52,17.60
2014,08,25,10,53,17.70
2014,08,25,10,54,17.70
2014,08,25,10,55,17.70
2014,08,25,10,56,17.70
2014,08,25,10,57,17.80
2014,08,25,10,58,17.80
2014,08,25,10,59,17.70
2014,08,25,11,00,17.70
2014,08,25,11,01,17.70
2014,08,25,11,02,17.70
2014,08,25,11,03,17.70
2014,08,25,11,04,17.70
2014,08,25,11,05,17.70
2014,08,25,11,06,17.50
2014,08,25,11,07,17.50
2014,08,25,11,08,17.40
2014,08,25,11,09,17.40
2014,08,25,11,10,17.40
2014,08,25,11,11,17.30
2014,08,25,11,12,17.30
2014,08,25,11,13,17.30
2014,08,25,11,14,17.30
2014,08,25,11,15,17.20
2014,08,25,11,16,17.20
2014,08,25,11,17,17.10
2014,08,25,11,18,17.10
2014,08,25,11,19,17.10
2014,08,25,11,20,17.00
2014,08,25,11,21,17.00
2014,08,25,11,22,16.90
2014,08,25,11,23,16.80
2014,08,25,11,24,16.80
2014,08,25,11,25,16.70
2014,08,25,11,26,16.70
2014,08,25,11,27,16.70
2014,08,25,11,28,16.70
2014,08,25,11,29,16.70
2014,08,25,11,30,16.70
2014,08,25,11,31,16.70
2014,08,25,11,32,16.70
2014,08,25,11,33,16.70
2014,08,25,11,34,16.80
2014,08,25,11,35,16.80
2014,08,25,11,36,16.80
2014,08,25,11,37,16.80
2014,08,25,11,38,16.80
2014,08,25,11,39,16.70
2014,08,25,11,40,16.60
2014,08,25,11,41,16.50
2014,08,25,11,42,16.40
2014,08,25,11,43,16.40
2014,08,25,11,44,16.20
2014,08,25,11,45,16.10
2014,08,25,11,46,15.80
2014,08,25,11,47,15.50
2014,08,25,11,48,15.30
2014,08,25,11,49,15.10
2014,08,25,11,50,15.00
2014,08,25,11,51,14.90
2014,08,25,11,52,14.80
2014,08,25,11,53,14.80
2014,08,25,11,54,14.70
2014,08,25,11,55,14.60
2014,08,25,11,56,14.60
2014,08,25,11,57,14.50
2014,08,25,11,58,14.50
2014,08,25,11,59,14.40
2014,08,25,12,00,14.40
2014,08,25,12,01,14.30
2014,08,25,12,02,14.30
2014,08,25,12,03,14.30
2014,08,25,12,04,14.30
2014,08,25,12,05,14.30
2014,08,25,12,06,14.40
2014,08,25,12,07,14.40
2014,08,25,12,08,14.50
2014,08,25,12,09,14.50
2014,08,25,12,10,14.50
2014,08,25,12,11,14.60
2014,08,25,12,12,14.60
2014,08,25,12,13,14.60
2014,08,25,12,14,14.60
2014,08,25,12,15,14.60
2014,08,25,12,16,14.50
2014,08,25,12,17,14.50
2014,08,25,12,18,14.40
2014,08,25,12,19,14.40
2014,08,25,12,20,14.40
2014,08,25,12,21,14.40
2014,08,25,12,22,14.40
2014,08,25,12,23,14.30
2014,08,25,12,24,14.30
2014,08,25,12,25,14.40
2014,08,25,12,26,14.40
2014,08,25,12,27,14.40
2014,08,25,12,28,14.40
2014,08,25,12,29,14.40
2014,08,25,12,30,14.40
2014,08,25,12,31,14.40
2014,08,25,12,32,14.40
2014,08,25,12,33,14.40
2014,08,25,12,34,14.40
2014,08,25,12,35,14.40
2014,08,25,12,36,14.40
2014,08,25,12,37,14.40
2014,08,25,12,38,14.40
2014,08,25,12,39,14.40
2014,08,25,12,40,14.40
2014,08,25,12,41,14.40
2014,08,25,12,42,14.30
2014,08,25,12,43,14.40
2014,08,25,12,44,14.40
2014,08,25,12,45,14.30
2014,08,25,12,46,14.30
2014,08,25,12,47,14.30
2014,08,25,12,48,14.30
2014,08,25,12,49,14.30
2014,08,25,12,50,14.30
2014,08,25,12,51,14.30
2014,08,25,12,52,14.20
2014,08,25,12,53,14.20
2014,08,25,12,54,14.20
2014,08,25,12,55,14.20
2014,08,25,12,56,14.20
2014,08,25,12,57,14.20
2014,08,25,12,58,14.20
2014,08,25,12,59,14.10
2014,08,25,13,00,14.10
2014,08,25,13,01,14.10
2014,08,25,13,02,14.10
2014,08,25,13,03,14.00
2014,08,25,13,04,14.00
2014,08,25,13,05,14.00
2014,08,25,13,06,13.90
2014,08,25,13,07,13.90
2014,08,25,13,08,13.80
2014,08,25,13,09,13.80
2014,08,25,13,10,13.80
2014,08,25,13,11,13.70
2014,08,25,13,12,13.70
2014,08,25,13,13,13.70
2014,08,25,13,14,13.70
2014,08,25,13,15,13.60
2014,08,25,13,16,13.60
2014,08,25,13,17,13.70
2014,08,25,13,18,13.60
2014,08,25,13,19,13.60
2014,08,25,13,20,13.60
2014,08,25,13,21,13.60
2014,08,25,13,22,13.60
2014,08,25,13,23,13.60
2014,08,25,13,24,13.60
2014,08,25,13,25,13.60
2014,08,25,13,26,13.60
2014,08,25,13,27,13.60
2014,08,25,13,28,13.60
2014,08,25,13,29,13.60
2014,08,25,13,30,13.60
2014,08,25,13,31,13.60
2014,08,25,13,32,13.60
2014,08,25,13,33,13.60
2014,08,25,13,34,13.60
2014,08,25,13,35,13.60
2014,08,25,13,36,13.60
2014,08,25,13,37,13.60
2014,08,25,13,38,13.60
2014,08,25,13,39,13.60
2014,08,25,13,40,13.60
2014,08,25,13,41,13.50
2014,08,25,13,42,13.50
2014,08,25,13,43,13.50
2014,08,25,13,44,13.50
2014,08,25,13,45,13.50
2014,08,25,13,46,13.40
2014,08,25,13,47,13.40
2014,08,25,13,48,13.40
2014,08,25,13,49,13.40
2014,08,25,13,50,13.40
2014,08,25,13,51,13.40
2014,08,25,13,52,13.40
2014,08,25,13,53,13.50
2014,08,25,13,54,13.50
2014,08,25,13,55,13.50
2014,08,25,13,56,13.60
2014,08,25,13,57,13.70
2014,08,25,13,58,13.80
2014,08,25,13,59,13.90
2014,08,25,14,00,14.00
2014,08,25,14,01,14.10
2014,08,25,14,02,14.10
2014,08,25,14,03,14.10
2014,08,25,14,04,14.10
2014,08,25,14,05,14.20
2014,08,25,14,06,14.40
2014,08,25,14,07,14.40
2014,08,25,14,08,14.50
2014,08,25,14,09,14.50
2014,08,25,14,10,14.60
2014,08,25,14,11,14.70
2014,08,25,14,12,14.80
2014,08,25,14,13,14.90
2014,08,25,14,14,15.00
2014,08,25,14,15,15.00
2014,08,25,14,16,15.10
2014,08,25,14,17,15.20
2014,08,25,14,18,15.30
2014,08,25,14,19,15.40
2014,08,25,14,20,15.50
2014,08,25,14,21,15.50
2014,08,25,14,22,15.60
2014,08,25,14,23,15.70
2014,08,25,14,24,15.70
2014,08,25,14,25,15.80
2014,08,25,14,26,15.70
2014,08,25,14,27,15.70
2014,08,25,14,28,15.70
2014,08,25,14,29,15.60
2014,08,25,14,30,15.60
2014,08,25,14,31,15.70
2014,08,25,14,32,15.80
2014,08,25,14,33,15.90
2014,08,25,14,34,15.90
2014,08,25,14,35,15.90
2014,08,25,14,36,15.90
2014,08,25,14,37,15.90
2014,08,25,14,38,15.90
2014,08,25,14,39,15.80
2014,08,25,14,40,15.80
2014,08,25,14,41,15.80
2014,08,25,14,42,15.90
2014,08,25,14,43,16.00
2014,08,25,14,44,16.20
2014,08,25,14,45,16.30
2014,08,25,14,46,16.40
2014,08,25,14,47,16.50
2014,08,25,14,48,16.60
2014,08,25,14,49,16.80
2014,08,25,14,50,16.80
2014,08,25,14,51,16.90
2014,08,25,14,52,17.00
2014,08,25,14,53,17.10
2014,08,25,14,54,17.10
2014,08,25,14,55,17.20
2014,08,25,14,56,17.30
2014,08,25,14,57,17.30
2014,08,25,14,58,17.30
2014,08,25,14,59,17.30
2014,08,25,15,00,17.20
2014,08,25,15,01,17.20
2014,08,25,15,02,17.20
2014,08,25,15,03,17.20
2014,08,25,15,04,17.20
2014,08,25,15,05,17.30
2014,08,25,15,06,17.30
2014,08,25,15,07,17.20
2014,08,25,15,08,17.20
2014,08,25,15,09,17.20
2014,08,25,15,10,17.10
2014,08,25,15,11,17.00
2014,08,25,15,12,16.90
2014,08,25,15,13,16.80
2014,08,25,15,14,16.80
2014,08,25,15,15,16.70
2014,08,25,15,16,16.70
2014,08,25,15,17,16.70
2014,08,25,15,18,16.70
2014,08,25,15,19,16.80
2014,08,25,15,20,16.80
2014,08,25,15,21,16.80
2014,08,25,15,22,16.80
2014,08,25,15,23,16.80
2014,08,25,15,24,16.80
2014,08,25,15,25,16.80
2014,08,25,15,26,16.80
2014,08,25,15,27,16.80
2014,08,25,15,28,16.70
2014,08,25,15,29,16.70
2014,08,25,15,30,16.70
2014,08,25,15,31,16.70
2014,08,25,15,32,16.70
2014,08,25,15,33,16.70
2014,08,25,15,34,16.80
2014,08,25,15,35,16.80
2014,08,25,15,36,16.80
2014,08,25,15,37,16.80
2014,08,25,15,38,16.80
2014,08,25,15,39,16.80
2014,08,25,15,40,16.80
2014,08,25,15,41,16.80
2014,08,25,15,42,16.80
2014,08,25,15,43,16.80
2014,08,25,15,44,16.80
2014,08,25,15,45,16.80
2014,08,25,15,46,16.80
2014,08,25,15,47,16.80
2014,08,25,15,48,16.80
2014,08,25,15,49,16.80
2014,08,25,15,50,16.70
2014,08,25,15,51,16.70
2014,08,25,15,52,16.70
2014,08,25,15,53,16.70
2014,08,25,15,54,16.70
2014,08,25,15,55,16.70
2014,08,25,15,56,16.70
2014,08,25,15,57,16.60
2014,08,25,15,58,16.60
2014,08,25,15,59,16.60
2014,08,25,16,00,16.50
2014,08,25,16,01,16.50
2014,08,25,16,02,16.40
2014,08,25,16,03,16.30
2014,08,25,16,04,16.30
2014,08,25,16,05,16.20
2014,08,25,16,06,16.10
2014,08,25,16,07,16.00
2014,08,25,16,08,15.90
2014,08,25,16,09,15.80
2014,08,25,16,10,15.80
2014,08,25,16,11,15.80
2014,08,25,16,12,15.90
2014,08,25,16,13,16.00
2014,08,25,16,14,16.10
2014,08,25,16,15,16.10
2014,08,25,16,16,16.20
2014,08,25,16,17,16.20
2014,08,25,16,18,16.20
2014,08,25,16,19,16.30
2014,08,25,16,20,16.30
2014,08,25,16,21,16.30
2014,08,25,16,22,16.30
2014,08,25,16,23,16.30
2014,08,25,16,24,16.30
2014,08,25,16,25,16.30
2014,08,25,16,26,16.20
2014,08,25,16,27,16.20
2014,08,25,16,28,16.20
2014,08,25,16,29,16.00
2014,08,25,16,30,15.80
2014,08,25,16,31,15.70
2014,08,25,16,32,15.50
2014,08,25,16,33,15.40
2014,08,25,16,34,15.30
2014,08,25,16,35,15.20
2014,08,25,16,36,15.20
2014,08,25,16,37,15.30
2014,08,25,16,38,15.40
2014,08,25,16,39,15.50
2014,08,25,16,40,15.60
2014,08,25,16,41,15.70
2014,08,25,16,42,15.80
2014,08,25,16,43,15.90
2014,08,25,16,44,16.00
2014,08,25,16,45,16.10
2014,08,25,16,46,16.20
2014,08,25,16,47,16.20
2014,08,25,16,48,16.30
2014,08,25,16,49,16.30
2014,08,25,16,50,16.40
2014,08,25,16,51,16.40
2014,08,25,16,52,16.40
2014,08,25,16,53,16.40
2014,08,25,16,54,16.50
2014,08,25,16,55,16.50
2014,08,25,16,56,16.50
2014,08,25,16,57,16.60
2014,08,25,16,58,16.60
2014,08,25,16,59,16.60
2014,08,25,17,00,16.60
2014,08,25,17,01,16.60
2014,08,25,17,02,16.60
2014,08,25,17,03,16.60
2014,08,25,17,04,16.60
2014,08,25,17,05,16.50
2014,08,25,17,06,16.50
2014,08,25,17,07,16.50
2014,08,25,17,08,16.50
2014,08,25,17,09,16.50
2014,08,25,17,10,16.50
2014,08,25,17,11,16.60
2014,08,25,17,12,16.60
2014,08,25,17,13,16.50
2014,08,25,17,14,16.50
2014,08,25,17,15,16.50
2014,08,25,17,16,16.60
2014,08,25,17,17,16.60
2014,08,25,17,18,16.60
2014,08,25,17,19,16.60
2014,08,25,17,20,16.60
2014,08,25,17,21,16.70
2014,08,25,17,22,16.70
2014,08,25,17,23,16.70
2014,08,25,17,24,16.70
2014,08,25,17,25,16.80
2014,08,25,17,26,16.80
2014,08,25,17,27,16.80
2014,08,25,17,28,16.80
2014,08,25,17,29,16.90
2014,08,25,17,30,16.90
2014,08,25,17,31,16.90
2014,08,25,17,32,16.90
2014,08,25,17,33,16.90
2014,08,25,17,34,16.90
2014,08,25,17,35,16.90
2014,08,25,17,36,16.90
2014,08,25,17,37,16.90
2014,08,25,17,38,17.00
2014,08,25,17,39,17.00
2014,08,25,17,40,17.00
2014,08,25,17,41,17.00
2014,08,25,17,42,17.00
2014,08,25,17,43,17.00
2014,08,25,17,44,17.10
2014,08,25,17,45,17.10
2014,08,25,17,46,17.10
2014,08,25,17,47,17.10
2014,08,25,17,48,17.10
2014,08,25,17,49,17.10
2014,08,25,17,50,17.10
2014,08,25,17,51,17.10
2014,08,25,17,52,17.10
2014,08,25,17,53,17.10
2014,08,25,17,54,17.20
2014,08,25,17,55,17.20
2014,08,25,17,56,17.20
2014,08,25,17,57,17.30
2014,08,25,17,58,17.30
2014,08,25,17,59,17.40
2014,08,25,18,00,17.40
2014,08,25,18,01,17.50
2014,08,25,18,02,17.60
2014,08,25,18,03,17.70
2014,08,25,18,04,17.80
2014,08,25,18,05,17.80
2014,08,25,18,06,17.80
2014,08,25,18,07,17.80
2014,08,25,18,08,17.70
2014,08,25,18,09,17.60
2014,08,25,18,10,17.50
2014,08,25,18,11,17.50
2014,08,25,18,12,17.60
2014,08,25,18,13,17.60
2014,08,25,18,14,17.50
2014,08,25,18,15,17.40
2014,08,25,18,16,17.30
2014,08,25,18,17,17.00
2014,08,25,18,18,16.80
2014,08,25,18,19,16.50